Other Public Products
Issued by NWS Grand Forks, ND

Home | Current Version | Previous Version | Graphics & Text | Print | Product List | Glossary On
Versions: 1 2 3 4 5 6 7 8 9 10 11 12 13 14 15 16 17 18 19 20 21 22 23 24 25 26 27 28 29 30 31 32 33 34 35 36 37 38 39 40 41 42 43 44 45 46 47 48 49 50
000
FPUS83 KFGF 301010
OPUFGF
PRAIRIE TO PINES WEATHER ROUNDUP
NATIONAL WEATHER SERVICE EASTERN NORTH DAKOTA/GRAND FORKS ND
500 AM CDT SAT APR 30 2016

 **SATELLITE DATA USED TO AUGMENT SKY COVER AT AUTOMATED STATIONS**
 *****  WEATHER ACROSS EASTERN NORTH DAKOTA  *****

CITY           SKY/WX    TMP DP  RH WIND       PRES   REMARKS
GRAND FORKS    CLEAR     38  30  73 E9        30.22R
GRAND FORKS AF CLEAR     32  28  84 NE5       30.22S
GRAND CITY NWS NOT AVBL
BUXTON         NOT AVBL
DEVILS LAKE    CLEAR     38  30  73 NE10      30.22R
FARGO          CLEAR     44  31  60 E9        30.17S
WAHPETON ARPT  SUNNY     41  32  70 E6        30.14S
$$

 *****  WEATHER ACROSS CENTRAL AND WESTERN NORTH DAKOTA  *****

CITY           SKY/WX    TMP DP  RH WIND       PRES   REMARKS
JAMESTOWN      CLEAR     39  32  76 NE10      30.13R
BISMARCK       CLOUDY    38  32  79 NE10      30.14S
MINOT          CLEAR     37  26  64 CALM      30.22R
MINOT AFB      CLEAR     38  27  65 E8        30.21R
GARRISON         N/A     40  29  64 NE8       30.18R
WILLISTON      CLEAR     40  29  64 CALM      30.20R
DICKINSON      CLOUDY    34  27  75 E8        30.12R
HETTINGER      CLOUDY    40  33  76 NE8       30.10S
$$

 *****  OTHER OBSERVATIONS NORTHEAST NORTH DAKOTA  *****

CITY           SKY/WX    TMP DP  RH WIND       PRES   REMARKS
WALHALLA       FAIR      32  30  93 NW3       30.28R
LANGDON        FAIR      37  28  70 NE8       30.25R
CAVALIER       FAIR      37  28  70 N7        30.27R
GRAFTON        FAIR      36  30  80 N6        30.26R
CANDO          FAIR      36  27  69 NE9       30.26R
FORT TOTTEN      N/A     42  30  63 E7        29.95
ROLLA          FAIR      32  23  69 N9        30.26R WCI  24
RUGBY          FAIR      36  28  75 E10       30.23R
 ***** THE ABOVE OBSERVATIONS ARE NON NWS ARE NOT QUALITY
        CONTROLLED AND MAY MIS-REPORT RAIN FOR SNOW...
$$

 *****  OTHER OBSERVATIONS SOUTHEAST NORTH DAKOTA *****

CITY           SKY/WX    TMP DP  RH WIND       PRES   REMARKS
COOPERSTOWN    NOT AVBL
VALLEY CITY    FAIR      39  32  75 E10       30.17R
OAKES            N/A    N/A N/A N/A MISG        N/A
GWINNER        FAIR      37  36  93 NE8       30.14R
BUFFALO        NOT AVBL
WYNDMERE         N/A     39  34  81 E6          N/A
 ***** THE ABOVE OBSERVATIONS ARE NON NWS ARE NOT QUALITY
       CONTROLLED AND MAY MIS-REPORT RAIN FOR SNOW...
$$

  *****  WEATHER ACROSS NORTHERN MINNESOTA  *****

CITY           SKY/WX    TMP DP  RH WIND       PRES   REMARKS
FLAG ISLAND    CLEAR     41  30  65 CALM      30.30R
WARROAD        PTCLDY    34  30  86 CALM      30.30R
ROSEAU         PTCLDY    34  30  86 E6        30.29R
HALLOCK        CLEAR     39  30  70 E12       30.26R
THF RVR FALLS  CLEAR     39  30  70 E8        30.25R
HALSTAD        NOT AVBL
FOSSTON        CLEAR     36  28  75 E5        30.22F
BAUDETTE       CLEAR     33  29  85 CALM      30.29R
WASKISH        CLEAR     36  32  87 NE6       30.27S
CROOKSTON      CLEAR     41  32  70 E8        30.24R
$$
  *****  WEATHER ACROSS CENTRAL AND WEST MINNESOTA  *****

CITY           SKY/WX    TMP DP  RH WIND       PRES   REMARKS
BEMIDJI        CLEAR     33  29  88 E6        30.23S
PARK RAPIDS    CLEAR     39  29  67 NE5       30.19F
WADENA         CLEAR     37  28  70 NE6       30.17S
DETROIT LAKES  CLEAR     41  32  70 E5        30.19S
MOORHEAD       CLEAR     45  30  57 E9        30.18S
FERGUS FALLS   CLEAR     43  30  61 E8        30.14S
ELBOW LAKE     FAIR      42  32  68 NE12      30.14S
MORRIS MN      CLEAR     43  34  70 E15       30.10S
STAPLES        CLEAR     36  28  75 CALM      30.17S
WHEATON        CLEAR     43  36  75 NE9       30.14R
$$
  *****  WEATHER ELSEWHERE ACROSS MINNESOTA  *****

CITY           SKY/WX    TMP DP  RH WIND       PRES   REMARKS
DULUTH         CLEAR     37  29  72 E14       30.22S
INTRNTL FALLS  CLEAR     28  25  88 CALM      30.29R
ELY            CLOUDY    34  30  86 N3        30.27R
CLOQUET        CLEAR     37  28  70 NE8       30.21R
BRAINERD       CLEAR     36  29  75 NE9       30.18S
HIBBING        CLEAR     29  26  89 NE5       30.23F WCI  24
ALEXANDRIA     CLEAR     39  30  70 NE12      30.14F
SAINT CLOUD    CLEAR     39  29  67 NE9       30.13S
MINNEAPOLIS    PTCLDY    43  31  62 NE9       30.10F
$$

  *****  WEATHER ACROSS SOUTH DAKOTA  *****

CITY           SKY/WX    TMP DP  RH WIND       PRES   REMARKS
SIOUX FALLS    CLOUDY    44  38  79 E16G26    29.94F
BROOKINGS      CLOUDY    40  36  86 NE8       29.99F
WATERTOWN      CLOUDY    41  34  76 E16       30.03S
HURON          CLOUDY    42  38  85 NE10      30.00S
SISSETON         N/A     42  34  73 E12       30.10S
ABERDEEN       PTCLDY    40  36  86 N9        30.07S
MITCHELL       CLOUDY    43  40  89 NE12      29.96F
PIERRE         PTCLDY    41  37  86 NE13      30.01R
MOBRIDGE       CLOUDY    41  38  89 N10       30.05F
RAPID CITY     CLOUDY    40  37  89 N12       30.02S
$$

  *****  SOME WEATHER IN NEARBY STATES *****

CITY           SKY/WX    TMP DP  RH WIND       PRES   REMARKS
GLASGOW MT     CLOUDY    44  33  65 E10       30.14S
GREAT FALLS MT CLOUDY    36  34  92 W5        30.07R
CHEYENNE WY    LGT SNOW  29  26  89 N9        29.87R FOG     WCI  20
SCOTTSBLUFF NE LGT SNOW  33  31  92 NW7       29.92S FOG
OMAHA NE       LGT RAIN  46  43  89 E14G26    29.77S
DES MOINES IA  RAIN      45  42  89 E15G25    29.85F FOG
DAVENPORT IA   LGT RAIN  45  41  86 E16       29.98F FOG
CHICAGO IL     CLOUDY    45  41  86 NE9       30.05F
EAU CLAIRE WI  CLOUDY    39  34  82 NE7       30.12S
LA CROSSE WI   CLOUDY    42  37  82 CALM      30.09S
$$

  *****  SOME NATIONAL WEATHER *****

CITY           SKY/WX    TMP DP  RH WIND       PRES   REMARKS
LA GUARDIA NY  MOCLDY    48  39  71 NE8       30.17S
RALEIGH NC     CLOUDY    59  58  96 E7        30.08R FOG
ATLANTA GA     CLOUDY    71  54  54 E3        29.94R
NEW ORLEANS LA CLOUDY    76  71  85 SE7       29.78F
OKLAHOMA CITY  CLOUDY    50  49  96 NW12      29.73R
ALBUQUERQUE NM PTCLDY    45  37  73 S6        29.87F
SALT LAKE CITY MOCLDY    48  39  71 N3        29.86R
LOS ANGELES CA CLOUDY    57  49  74 S7        29.84F
BOISE ID       CLEAR     44  36  73 NW14      29.97S
SEATTLE WA     PTCLDY    50  43  77 NE5       30.29R
$$

*** WEATHER ACROSS MANITOBA...SASKATCHEWAN AND ONTARIO ***
                ***ONTARIO***

CITY           SKY/WX    TMP DP  RH WIND       PRES   REMARKS
GERALDTON      MOCLDY    30  28  93 E5        30.32R
THUNDER BAY    MOCLDY    36  30  80 N3        30.29R
SIOUX LOOKOUT  CLEAR     30  27  86 NE3       30.32R
TORONTO        PTCLDY    37  27  65 N5        30.19R
BIG TROUT LK   CLEAR     27  27 100 NE3       30.39S
PICKLE LAKE    NOT AVBL
DRYDEN         CLEAR     32  28  86 E6        30.31R
KENORA         CLEAR     36  28  75 E7        30.31R
$$
                *** MANITOBA***

CITY           SKY/WX    TMP DP  RH WIND       PRES   REMARKS
BRANDON        CLEAR     37  25  60 NE10      30.29R
DAUPHIN        CLEAR     28  23  80 W9        30.34R WCI  20
ISLAND LAKE    NOT AVBL
PILOT MOUND      N/A     36  23  60 NE9         N/A
THE PAS        PTCLDY    36  27  69 CALM      30.33R
THOMPSON       MOCLDY    36  25  64 CALM      30.32R
WINNIPEG       CLEAR     32  25  74 NE5       30.31R
LYNN LAKE      MOCLDY    39  27  60 SW6       30.28R
CHURCHILL      MOCLDY    18  18 100 SE6       30.48S WCI   9
$$
                ***SASKATCHEWAN***

CITY           SKY/WX    TMP DP  RH WIND       PRES   REMARKS
ESTEVAN        CLEAR     32  25  74 E8        30.24R WCI  25
KINDERSLEY     PTCLDY    37  27  65 SE6       30.17R
LLOYDMINSTER   CLOUDY    41  27  56 E3        30.17R
PRINCE ALBERT  PTCLDY    32  27  80 E5        30.27R
REGINA         CLEAR     41  23  48 E13       30.26R
YORKTON        CLEAR     34  27  75 E5        30.31R
N. BATTLEFORD  CLEAR     41  23  48 E12       30.21R
LA RONGE       PTCLDY    34  27  75 CALM      30.26R   C1F1C2F2C3F3C4F4C5F5C6F6C7F7C8F8C9F9CaFaCbFbCcFcCdFdCe!


USA.gov is the U.S. government's official web portal to all federal, state and local government web resources and services.